World > North America > United States > Ohio

Portsmouth, Ohio Regional Weather

Lat: 38.76N, Lon: 82.95W
Wx Zone: OHZ088 Web Search

Helpful Tip: Abbreviated, 7 Day, 14 Day Forecasts. There is a weather forecast for every taste.

Feedback

Portsmouth, OH Regional Weather

Expires:202008070200;;047560
ASUS41 KCLE 070112
RWRCLE
OHIO REGIONAL WEATHER ROUNDUP
NATIONAL WEATHER SERVICE WILMINGTON, OH
900 PM EDT THU AUG 06 2020

NOTE: "FAIR" INDICATES FEW OR NO CLOUDS BELOW 12,000 FEET WITH NO
SIGNIFICANT WEATHER AND/OR OBSTRUCTIONS TO VISIBILITY.


OHZ036-037-039>041-045>050-054>059-063>069-073>076-082>088-070200-
  CENTRAL AND SOUTHEAST OHIO
  
CITY           SKY/WX    TMP DP  RH WIND       PRES   REMARKS
COLUMBUS       MOCLDY    72  59  63 N5        30.08S                  
OSU AIRPORT    FAIR      70  57  63 N3        30.08S                  
BOLTON FIELD   CLOUDY    70  59  67 NW5       30.09S                  
RICKENBACK AFB FAIR      72  58  59 NE3       30.07S                  
NEWARK         MOCLDY    72  61  68 CALM      30.07F                  
MARION         CLOUDY    69  58  67 NE6       30.11R                  
LANCASTER      MOCLDY    70  65  84 CALM      30.08S                  
ZANESVILLE     FAIR      72  62  71 NW3       30.07F                  
NEW PHILLY     MOCLDY    70  63  78 CALM      30.08S                  
$$
  

SKY/WX - Weather  TMP - Temperature  DP - Dew Point  RH - Relative Humidity
WIND - Wind Direction/Speed PRES - Barometric Pressure VSB - Visibility
WCI - Wind Chill Index E13G22 Wind - East Wind 13 mph/Gusts of 22 mph
Portsmouth Weather Map
UTC Time: 8/7/2020, 01:18
Your Time: